Weather History for Teterboro, NJ

Change the Weather History Date:

Sunday, March 24, 2013

  Actual Average Record
Temperature  
Mean Temperature 38 °F -  
Max Temperature 46 °F 51 °F 64 °F (2012)
Min Temperature 30 °F 34 °F 21 °F (2014)
Degree Days  
Heating Degree Days 27    
Moisture  
Dew Point 22 °F    
Average Humidity 51    
Maximum Humidity 65    
Minimum Humidity 37    
Precipitation  
Precipitation 0.00 in - - ()
Sea Level Pressure  
Sea Level Pressure 29.83 in    
Wind  
Wind Speed 7 mph (NW)    
Max Wind Speed 13 mph    
Max Gust Speed 20 mph    
Visibility 10 miles    
Events      
Averages and records for this station are not official NWS values.
T = Trace of Precipitation, MM = Missing Value Source: NWS Daily Summary

Daily Weather History Graph

Daily Weather History Graph

Search for Another Location

Airport:

Trip Planner

Search our weather history database for the weather conditions in past years. The results will help you decide how hot, cold, wet, or windy it might be!

Date:

Astronomy

Mar. 24, 2013 Rise Set
Actual Time 6:52 AM EDT 7:12 PM EDT
Civil Twilight 6:25 AM EDT 7:40 PM EDT
Nautical Twilight 5:52 AM EDT 8:12 PM EDT
Astronomical Twilight 5:20 AM EDT 8:45 PM EDT
Moon 4:37 PM EDT (3/24) 5:02 AM EDT (3/24)
Length of Visible Light 13h 15m
Length of Day
12h 20m
Waxing Gibbous, 91% of the Moon is Illuminated
Mar 24
Waxing Gibbous
Mar 27
Full
Apr 3
Last Quarter
Apr 10
New
Apr 18
First Quarter

Hourly Weather History & Observations

Time (EDT) Temp. Windchill Dew Point Humidity Pressure Visibility Wind Dir Wind Speed Gust Speed Precip Events Conditions
12:51 AM 35.1 °F 29.3 °F 19.9 °F 54% 29.93 in 10.0 mi NW 6.9 mph - N/A   Clear
1:51 AM 35.1 °F 28.6 °F 19.0 °F 52% 29.92 in 10.0 mi NW 8.1 mph - N/A   Clear
2:51 AM 34.0 °F 31.0 °F 18.0 °F 52% 29.90 in 10.0 mi NNW 3.5 mph - N/A   Clear
3:51 AM 33.1 °F 28.7 °F 19.0 °F 56% 29.91 in 10.0 mi West 4.6 mph - N/A   Clear
4:51 AM 32.0 °F 26.4 °F 19.0 °F 59% 29.92 in 10.0 mi West 5.8 mph - N/A   Clear
5:51 AM 32.0 °F 25.6 °F 19.0 °F 59% 29.92 in 10.0 mi West 6.9 mph - N/A   Clear
6:51 AM 30.9 °F 25.2 °F 19.0 °F 61% 29.92 in 10.0 mi West 5.8 mph - N/A   Clear
7:51 AM 33.1 °F 26.9 °F 19.9 °F 59% 29.94 in 10.0 mi WNW 6.9 mph - N/A   Clear
8:51 AM 36.0 °F 28.5 °F 21.0 °F 55% 29.94 in 10.0 mi NNW 10.4 mph - N/A   Clear
9:51 AM 37.9 °F 30.5 °F 21.0 °F 51% 29.92 in 10.0 mi NW 11.5 mph 19.6 mph N/A   Clear
10:51 AM 39.9 °F 32.9 °F 21.0 °F 47% 29.91 in 10.0 mi NNW 11.5 mph 18.4 mph N/A   Clear
11:51 AM 42.1 °F 36.6 °F 23.0 °F 47% 29.87 in 10.0 mi NNW 9.2 mph - N/A   Clear
12:51 PM 44.1 °F 38.1 °F 23.0 °F 43% 29.83 in 10.0 mi NNW 11.5 mph 17.3 mph N/A   Clear
1:51 PM 45.0 °F 38.9 °F 23.0 °F 42% 29.81 in 10.0 mi NW 12.7 mph - N/A   Clear
2:51 PM 46.9 °F - 23.0 °F 39% 29.75 in 10.0 mi North 5.8 mph - N/A   Clear
3:51 PM 46.0 °F 42.5 °F 21.0 °F 37% 29.73 in 10.0 mi Variable 6.9 mph - N/A   Clear
4:51 PM 46.0 °F 41.4 °F 21.0 °F 37% 29.72 in 10.0 mi North 9.2 mph - N/A   Clear
5:51 PM 45.0 °F 39.3 °F 21.0 °F 39% 29.72 in 10.0 mi North 11.5 mph 17.3 mph N/A   Clear
6:51 PM 44.1 °F 39.5 °F 21.0 °F 40% 29.71 in 10.0 mi North 8.1 mph - N/A   Clear
7:51 PM 44.1 °F 40.8 °F 21.0 °F 40% 29.75 in 10.0 mi NE 5.8 mph - N/A   Clear
8:51 PM 41.0 °F 37.1 °F 27.0 °F 57% 29.75 in 10.0 mi South 5.8 mph - N/A   Clear
9:51 PM 39.9 °F 35.8 °F 28.0 °F 63% 29.76 in 10.0 mi SW 5.8 mph - N/A   Clear
10:51 PM 39.0 °F 35.7 °F 28.0 °F 65% 29.75 in 10.0 mi SSW 4.6 mph - N/A   Clear
11:51 PM 39.9 °F - 27.0 °F 60% 29.71 in 10.0 mi Calm Calm - N/A   Clear